Regional Weather Roundup
Issued by NWS

Home | Current Version | Previous Version | Graphics & Text | Print | Product List | Glossary On
Versions: 1 2 3 4 5 6 7 8 9 10 11 12 13 14 15 16 17 18 19 20 21 22 23 24 25 26 27 28 29 30 31 32 33 34 35 36 37 38 39 40 41 42 43 44 45 46 47 48 49 50
000
ASUS43 KMPX 222010
RWRMN
WEATHER ROUNDUP FOR MINNESOTA
NATIONAL WEATHER SERVICE TWIN CITIES/CHANHASSEN MN
300 PM CDT FRI AUG 22 2014


NOTE: "FAIR" INDICATES FEW OR NO CLOUDS BELOW 12,000 FEET WITH NO
SIGNIFICANT WEATHER AND/OR OBSTRUCTIONS TO VISIBILITY. N/A MEANS
CURRENT SKY AND/OR WEATHER CONDITIONS ARE NOT AVAILABLE.

MNZ060>063-068>070-222100-
   Twin Cities Metro

CITY           SKY/WX    TMP DP  RH WIND       PRES   REMARKS
TWIN CITIES    CLOUDY    78  68  71 NW6       29.97F
ST PAUL        CLOUDY    77  69  76 NE6       29.97F
CRYSTAL        CLOUDY    76  67  73 CALM      29.97S
BLAINE         CLOUDY    75  72  88 NE3       29.98S
LAKEVILLE      CLOUDY    77  70  78 NE3       29.97F
EDEN PRAIRIE   CLOUDY    77  69  76 CALM      29.97F
SOUTH ST PAUL  PTSUNNY   76  68  76 CALM      29.97S
LAKE ELMO      CLOUDY    75  70  83 NW3       29.99F
$$
MNZ001>005-007-008-013>017-022>024-027-028-222100-
   Northwest Minnesota

CITY           SKY/WX    TMP DP  RH WIND       PRES   REMARKS
BEMIDJI        CLOUDY    77  64  63 CALM      29.99S
HALLOCK        PTSUNNY   70  64  83 N13       30.02S
ROSEAU         LGT RAIN  68  63  83 NE8       30.01S
WARROAD        LGT RAIN  70  66  88 N5        30.02R
THIEF RVR FALL CLOUDY    72  66  83 N12       30.00S
CROOKSTON      CLOUDY    70  66  88 N12       30.01S FOG
FOSSTON        CLOUDY    73  68  83 W12       30.00S
DETROIT LAKES  PTSUNNY   77  68  73 NW13      30.01S
MOORHEAD       PTSUNNY   73  72  94 N9        30.00F
PARK RAPIDS    MOSUNNY   78  65  63 SE8       29.98F
MAHNOMEN       MOCLDY    74  68  81 NW9       29.99S
$$
MNZ006-009>011-018-025>026-222100-
   North Central Minnesota

CITY           SKY/WX    TMP DP  RH WIND       PRES   REMARKS
BAUDETTE       CLOUDY    75  66  73 N5        30.00S
FLAG ISLAND    CLOUDY    70  63  78 N5        30.01S
INTL FALLS     CLOUDY    73  64  73 N8        30.00S
WASKISH        CLOUDY    73  66  78 CALM      29.99F
BIG FORK       MOSUNNY  N/A N/A N/A CALM      30.00F
LONGVILLE      PTSUNNY   79  66  65 S3        29.99S
GRAND RAPIDS   CLOUDY    73  64  73 S5        30.00F
CRANE LAKE     CLOUDY    72  66  83 N5        30.02S
ORR            CLOUDY    75  63  64 CALM      29.98S
COOK           CLOUDY    73  64  73 CALM      30.01S
WALKER         FAIR      77  65  67 E6        29.99F
$$
MNZ012-019>021-037-222100-
   Northeast Minnesota

CITY           SKY/WX    TMP DP  RH WIND       PRES   REMARKS
DULUTH         CLOUDY    66  62  87 SE6       30.01F FOG
ELY            CLOUDY    72  64  78 CALM      30.01F
HIBBING        CLOUDY    74  65  73 CALM      30.00F
EVELETH        CLOUDY    72  64  78 CALM      30.01F
DULUTH HARBOR  CLOUDY    63  61  94 NE7       30.02S
TWO HARBORS    CLOUDY    68  61  77 SE6       29.99S
SILVER BAY     SUNNY     66  64  94 E7        29.99F
GRAND MARAIS     N/A     62  60  93 E7        30.00S
G MARAIS ARPRT CLOUDY    63  59  88 N5        30.05S FOG
$$
MNZ029>031-032-039>041-046>048-054>057-064-222100-
   West Central Minnesota

CITY           SKY/WX    TMP DP  RH WIND       PRES   REMARKS
FERGUS FALLS   PTSUNNY   79  66  65 NW9       29.98S
WHEATON        PTSUNNY   75  68  78 W7        30.01R
MORRIS         MOSUNNY   82  68  61 N5        29.98R
ALEXANDRIA     PTSUNNY   81  66  60 CALM      30.01R
ELBOW LAKE     FAIR      79  69  72 W7        29.99S
WADENA         MOSUNNY   79  68  69 SE6       29.98F
GLENWOOD       MOSUNNY   79  68  69 N3        30.00S
APPLETON       MOSUNNY   84  64  51 N3        29.97S
BENSON         MOSUNNY   84  66  54 CALM      29.98R
ORTONVILLE     CLOUDY    81  68  65 N5        29.99R
MADISON        SUNNY     82  72  69 W5        29.99R
WILLMAR        FAIR      82  66  57 CALM      29.99S
$$
MNZ033>034-036-042>043-049>051-058-059-222100-
   Central Minnesota

CITY           SKY/WX    TMP DP  RH WIND       PRES   REMARKS
ST CLOUD       CLOUDY    77  68  73 NW5       29.98S
SAUK CENTRE    FAIR      77  67  71 E5        29.99S
PAYNESVILLE    MOSUNNY   77  67  70 N5        29.99S
AITKIN         CLOUDY    75  66  73 CALM      29.98S
PINE RIVER     CLOUDY    75  66  73 E3        30.02F
BRAINERD       CLOUDY    72  66  81 CALM      30.00S
STAPLES        MOSUNNY   77  66  69 SE3       30.00S
LONG PRAIRIE   FAIR      77  66  69 N5        30.01R
LITTLE FALLS   CLOUDY    72  64  78 CALM      29.99F
LITCHFIELD     PTSUNNY   81  70  69 CALM      29.99S
BUFFALO        CLOUDY    76  67  74 CALM      29.99S
MAPLE LAKE     CLOUDY    76  70  82 CALM      30.00R
$$
MNZ037-044-045-052-053-222100-
   East Central Minnesota

CITY           SKY/WX    TMP DP  RH WIND       PRES   REMARKS
PRINCETON      CLOUDY    75  68  78 NE3       29.98S
MORA           CLOUDY    72  64  78 CALM      30.00F
CAMBRIDGE      CLOUDY    75  64  69 N3        29.96F
RUSH CITY      CLOUDY    73  67  81 CALM      29.98F
MOOSE LAKE     CLOUDY    68  63  83 CALM      29.99F
HINCKLEY       CLOUDY    72  66  83 N3        29.99F
CLOQUET        CLOUDY    66  63  88 E6        30.01F FOG
MCGREGOR       CLOUDY    72  66  83 SE3       30.00F
$$
MNZ071>073-080-081-089-090-097-098-222100-
   Southwest Minnesota

CITY           SKY/WX    TMP DP  RH WIND       PRES   REMARKS
MONTEVIDEO     SUNNY     86  70  58 CALM      29.98S HX  90
GRANITE FALLS  MOSUNNY   82  70  65 CALM      29.99S
CANBY          MOSUNNY   81  67  61 CALM      30.00S
MARSHALL       MOSUNNY   82  68  61 NE5       29.98S
REDWOOD FALLS  MOSUNNY   85  68  56 VRB5      29.97F
OLIVIA         PTSUNNY   81  68  65 N6        29.97F
PIPESTONE      MOSUNNY   82  68  61 E7        30.00F
WINDOM         MOSUNNY   81  70  69 NE6       29.99F
WORTHINGTON      N/A     81  70  69 NE7       30.00F
JACKSON        MOSUNNY   82  66  57 NE5       30.00S
TRACY          PTSUNNY   84  70  62 NE7       29.99S
SLAYTON        MOSUNNY   83  68  61 CALM      30.01F
$$
MNZ065>067-074>077-082>085-091>093-222100-
   South Central Minnesota

CITY           SKY/WX    TMP DP  RH WIND       PRES   REMARKS
MANKATO        MOSUNNY   81  66  61 E3        29.97F
NEW ULM        MOSUNNY   81  72  74 NW3       29.97F
ST JAMES       MOSUNNY   88  70  55 CALM      29.98F HX  92
FAIRMONT       MOSUNNY   81  70  69 NE6       29.98F
GLENCOE        PTSUNNY   80  67  64 CALM      29.98S
FARIBAULT      MOSUNNY   84  64  51 CALM      29.97F
OWATONNA       MOSUNNY   81  68  65 CALM      29.97F
WASECA         MOSUNNY   79  63  57 CALM      29.99F
ALBERT LEA     SUNNY     82  70  65 NW6       29.96F
$$
MNZ078>079-086>088-094>096-222100-
   Southeast Minnesota

CITY           SKY/WX    TMP DP  RH WIND       PRES   REMARKS
ROCHESTER      MOSUNNY   83  71  67 VRB6      29.97F
RED WING       CLOUDY    81  70  69 NW5       29.94F
STANTON        CLOUDY    81  69  67 CALM      29.96S
DODGE CENTER   PTSUNNY   79  70  73 N5        29.98F
WINONA         MOSUNNY   82  72  69 CALM      29.93F
AUSTIN         MOSUNNY   82  72  69 N6        29.96F
PRESTON        MOSUNNY   82  75  78 NW7       29.96F
$$
ABBREVIATIONS USED IN REMARKS
   TC - TEMPERATURES IN CELSIUS
  WCI - WIND CHILL INDEX
   HX - HEAT INDEX
  VSB - VISIBILITY
$$



USA.gov is the U.S. government's official web portal to all federal, state and local government web resources and services.